FW6474 Weather Reports


Display with metric or nautical units.
time (UTC)temp
F
wind
direction
speed
MPH
gust
MPH
rain 1hr
in
rain 24hr
in
rain mn
in
humidity
%
barometer
mb
20260508205456 63 230 2.0 7.0 0.00 0.02 0.02 51 1008.7
20260508204949 62 240 2.0 7.0 0.00 0.02 0.02 57 1008.8
20260508204444 61 229 2.0 7.0 0.00 0.02 0.02 58 1008.7
20260508203938 61 176 3.0 8.0 0.00 0.02 0.02 58 1008.8
20260508203432 61 123 3.0 8.0 0.00 0.02 0.02 58 1008.9
20260508202925 61 104 4.0 8.0 0.00 0.02 0.02 57 1009.1
20260508202419 61 127 4.0 10.0 0.00 0.02 0.02 57 1009.1
20260508202145 61 155 3.0 10.0 0.00 0.02 0.02 57 1009.3
20260508201408 61 63 3.0 8.0 0.00 0.02 0.02 56 1009.4
20260508200902 60 146 5.0 12.0 0.00 0.02 0.02 56 1009.5
20260508200355 60 173 4.0 12.0 0.00 0.02 0.02 57 1009.6
20260508200121 60 129 3.0 11.0 0.00 0.02 0.02 56 1009.7
20260508195344 60 59 4.0 11.0 0.00 0.02 0.02 56 1009.6
20260508195110 60 96 5.0 12.0 0.00 0.02 0.02 54 1009.8
20260508194332 60 162 5.0 12.0 0.00 0.02 0.02 53 1009.9
20260508193826 60 165 6.0 13.0 0.00 0.02 0.02 53 1009.9
20260508193319 61 131 5.0 13.0 0.00 0.02 0.02 49 1010.0
20260508192814 62 136 4.0 11.0 0.00 0.02 0.02 49 1010.1
20260508192540 62 101 4.0 10.0 0.00 0.02 0.02 49 1010.2
20260508191809 63 173 3.0 10.0 0.00 0.02 0.02 46 1010.4
20260508191310 64 165 3.0 8.0 0.00 0.02 0.02 48 1010.5
20260508191039 64 146 3.0 8.0 0.00 0.02 0.02 46 1010.6
20260508190309 64 164 2.0 9.0 0.00 0.02 0.02 45 1010.5
20260508185810 64 60 2.0 10.0 0.00 0.02 0.02 46 1010.7
20260508185310 63 53 3.0 10.0 0.00 0.02 0.02 44 1010.6
20260508184809 63 176 2.0 6.0 0.00 0.02 0.02 46 1010.7
20260508184309 63 63 1.0 5.0 0.00 0.02 0.02 46 1010.7
20260508184040 62 352 2.0 6.0 0.00 0.02 0.02 49 1010.8
20260508183310 62 51 2.0 6.0 0.00 0.02 0.02 47 1010.8
20260508182806 63 121 2.0 5.0 0.00 0.02 0.02 44 1010.8
20260508182540 64 53 2.0 5.0 0.00 0.02 0.02 48 1010.9
20260508181806 63 217 2.0 7.0 0.00 0.02 0.02 40 1010.9
20260508181305 63 252 3.0 8.0 0.00 0.02 0.02 38 1011.0
20260508180805 63 269 3.0 8.0 0.00 0.02 0.02 40 1011.1
20260508180305 62 40 2.0 9.0 0.00 0.02 0.02 38 1011.2
20260508175806 62 211 2.0 9.0 0.00 0.02 0.02 40 1011.1
20260508175300 62 113 3.0 7.0 0.00 0.02 0.02 38 1011.3
20260508174754 62 293 3.0 9.0 0.00 0.02 0.02 42 1011.4
20260508174248 62 257 3.0 9.0 0.00 0.02 0.02 41 1011.5
20260508173742 62 224 2.0 8.0 0.00 0.02 0.02 39 1011.6
20260508173319 61 257 4.0 10.0 0.00 0.02 0.02 41 1012.0
20260508173306 63 226 1.0 6.0 0.00 0.02 0.02 40 1011.7
20260508173201 62 76 1.0 5.0 0.00 0.02 0.02 40 1011.8
20260508173055 61 314 3.0 11.0 0.00 0.02 0.02 43 1011.9
20260508172949 61 259 3.0 11.0 0.00 0.02 0.02 41 1012.0
20260508171226 61 257 4.0 10.0 0.00 0.02 0.02 41 1012.0
20260508170726 60 233 4.0 10.0 0.00 0.02 0.02 40 1012.1
20260508170227 61 227 3.0 9.0 0.00 0.02 0.02 41 1012.1
20260508165727 60 262 3.0 6.0 0.00 0.02 0.02 43 1012.2
20260508165226 60 239 3.0 10.0 0.00 0.02 0.02 42 1012.2
20260508164959 60 328 4.0 15.0 0.00 0.02 0.02 42 1012.3
20260508164226 60 296 5.0 15.0 0.00 0.02 0.02 40 1012.4
20260508163727 60 39 4.0 15.0 0.00 0.02 0.02 39 1012.6
20260508163227 60 269 3.0 11.0 0.00 0.02 0.02 41 1012.7
20260508162727 60 198 3.0 11.0 0.00 0.02 0.02 42 1012.7
20260508162227 60 189 2.0 5.0 0.00 0.02 0.02 45 1012.6
20260508161728 59 226 2.0 6.0 0.00 0.02 0.02 45 1012.7
20260508161226 59 217 3.0 6.0 0.00 0.02 0.02 46 1012.7
20260508160729 59 305 2.0 6.0 0.00 0.02 0.02 45 1012.7
20260508160231 59 237 1.0 6.0 0.00 0.02 0.02 48 1012.8
20260508155956 58 200 2.0 6.0 0.00 0.02 0.02 47 1012.7
20260508155218 58 55 2.0 6.0 0.00 0.02 0.02 50 1012.8
20260508154712 58 74 3.0 7.0 0.00 0.02 0.02 50 1012.8
20260508154437 58 225 2.0 7.0 0.00 0.02 0.02 49 1012.9
20260508153706 58 223 1.0 4.0 0.00 0.02 0.02 51 1012.9
20260508153205 58 232 2.0 5.0 0.00 0.02 0.02 50 1012.9
20260508152701 57 72 2.0 5.0 0.00 0.02 0.02 50 1012.9
20260508152202 58 102 1.0 4.0 0.00 0.02 0.02 49 1012.9
20260508151931 57 248 1.0 3.0 0.00 0.02 0.02 50 1013.0
20260508151202 57 293 1.0 4.0 0.00 0.02 0.02 52 1013.1
20260508150700 56 108 1.0 4.0 0.00 0.02 0.02 50 1013.1
20260508150202 55 0 1.0 4.0 0.00 0.02 0.02 55 1013.2
20260508145931 55 17 2.0 5.0 0.00 0.02 0.02 52 1013.2
20260508145202 55 303 2.0 6.0 0.00 0.02 0.02 51 1013.2
20260508144700 55 288 2.0 6.0 0.00 0.02 0.02 49 1013.3
20260508144429 56 232 1.0 4.0 0.00 0.02 0.02 54 1013.4
20260508143659 55 205 1.0 4.0 0.00 0.02 0.02 62 1013.4
20260508143158 54 109 2.0 4.0 0.00 0.02 0.02 58 1013.4
20260508142659 55 197 1.0 4.0 0.00 0.02 0.02 54 1013.5
20260508142429 55 290 1.0 5.0 0.00 0.02 0.02 56 1013.5
20260508141930 54 224 1.0 5.0 0.00 0.02 0.02 57 1013.5
20260508141158 54 167 1.0 3.0 0.00 0.02 0.02 57 1013.5
20260508140700 54 288 1.0 3.0 0.00 0.02 0.02 60 1013.6
20260508140200 53 131 1.0 4.0 0.00 0.02 0.02 62 1013.6
20260508140155 53 86 1.0 4.0 0.00 0.02 0.02 60 1013.7
20260508135155 53 98 1.0 3.0 0.00 0.02 0.02 62 1013.7
20260508134654 53 217 1.0 3.0 0.00 0.02 0.02 64 1013.7
20260508134155 53 117 1.0 3.0 0.00 0.02 0.02 63 1013.7
20260508133655 52 214 1.0 4.0 0.00 0.02 0.02 64 1013.7
20260508133156 52 266 1.0 4.0 0.00 0.02 0.02 64 1013.7
20260508132925 52 235 1.0 4.0 0.00 0.02 0.02 64 1013.7
20260508132156 52 109 0.0 3.0 0.00 0.02 0.02 65 1013.7
20260508131653 51 130 1.0 3.0 0.00 0.02 0.02 68 1013.6
20260508131421 51 143 1.0 3.0 0.00 0.02 0.02 68 1013.7
20260508130650 50 210 1.0 3.0 0.00 0.02 0.02 68 1013.7
20260508130151 50 98 1.0 4.0 0.00 0.02 0.02 68 1013.7
20260508125650 50 119 1.0 5.0 0.00 0.02 0.02 69 1013.7
20260508125421 50 158 1.0 5.0 0.00 0.02 0.02 70 1013.6
20260508124650 49 147 1.0 5.0 0.00 0.02 0.02 70 1013.6
20260508124151 49 153 1.0 5.0 0.00 0.02 0.02 69 1013.6
20260508123922 49 359 0.0 3.0 0.00 0.02 0.02 71 1013.6
20260508123146 49 143 0.0 2.0 0.00 0.02 0.02 72 1013.6
20260508122646 48 212 0.0 2.0 0.00 0.02 0.02 73 1013.5
20260508122146 48 124 0.0 2.0 0.00 0.02 0.02 76 1013.5
20260508121647 47 126 0.0 2.0 0.00 0.02 0.02 75 1013.5
20260508121147 47 100 0.0 2.0 0.00 0.02 0.02 76 1013.4
20260508120646 47 237 0.0 1.0 0.00 0.02 0.02 79 1013.3
20260508120146 46 115 0.0 1.0 0.00 0.02 0.02 82 1013.3
20260508115646 45 115 0.0 1.0 0.00 0.02 0.02 85 1013.2
20260508115147 45 118 0.0 1.0 0.00 0.02 0.02 88 1013.3
20260508114640 44 127 0.0 1.0 0.00 0.02 0.02 89 1013.2
20260508114135 44 127 0.0 1.0 0.00 0.02 0.02 90 1013.0
20260508113628 44 127 0.0 0.0 0.00 0.02 0.02 90 1013.1
20260508113353 43 127 0.0 0.0 0.00 0.02 0.02 90 1013.0
20260508112616 42 127 0.0 0.0 0.00 0.02 0.02 89 1013.0
20260508112343 42 127 0.0 0.0 0.00 0.02 0.02 89 1013.0
20260508111604 42 127 0.0 0.0 0.00 0.02 0.02 89 1012.9
20260508111059 41 127 0.0 0.0 0.00 0.02 0.02 90 1012.9
20260508110553 40 127 0.0 0.0 0.00 0.02 0.02 90 1012.8
20260508110048 40 127 0.0 0.0 0.00 0.02 0.02 90 1012.8
20260508105540 39 127 0.0 0.0 0.00 0.02 0.02 90 1012.8
20260508105035 39 127 0.0 0.0 0.00 0.02 0.02 89 1012.7
20260508104529 38 127 0.0 0.0 0.00 0.02 0.02 89 1012.7
20260508104023 38 127 0.0 0.0 0.00 0.02 0.02 89 1012.9
20260508103517 38 127 0.0 0.0 0.00 0.02 0.02 89 1012.8
20260508103010 38 127 0.0 0.0 0.00 0.02 0.02 89 1012.9
20260508102505 38 127 0.0 0.0 0.00 0.02 0.02 89 1012.9
20260508101959 39 127 0.0 0.0 0.00 0.02 0.02 89 1012.8
20260508101453 39 127 0.0 0.0 0.00 0.02 0.02 89 1012.8
20260508100947 39 127 0.0 0.0 0.00 0.02 0.02 89 1012.8
20260508100441 39 127 0.0 0.0 0.00 0.02 0.02 89 1012.8
20260508095935 40 127 0.0 0.0 0.00 0.02 0.02 89 1012.9
20260508095429 40 127 0.0 0.0 0.00 0.02 0.02 89 1012.9
20260508094923 40 127 0.0 0.0 0.00 0.02 0.02 88 1012.9
20260508094416 40 127 0.0 0.0 0.00 0.02 0.02 89 1012.9
20260508093911 40 127 0.0 0.0 0.00 0.02 0.02 88 1012.9
20260508093405 40 127 0.0 0.0 0.00 0.02 0.02 88 1012.9
20260508092859 40 127 0.0 0.0 0.00 0.02 0.02 88 1012.9
20260508092353 41 127 0.0 0.0 0.00 0.02 0.02 88 1012.9
20260508091847 41 127 0.0 0.0 0.00 0.02 0.02 88 1012.9
20260508091613 41 127 0.0 1.0 0.00 0.02 0.02 88 1012.9
20260508091105 41 127 0.0 1.0 0.00 0.02 0.02 88 1012.9
20260508090328 42 255 0.0 0.0 0.00 0.02 0.02 88 1013.0
20260508090056 42 255 0.0 0.0 0.00 0.02 0.02 88 1013.1
20260508085317 42 255 0.0 1.0 0.00 0.02 0.02 88 1013.0
20260508085043 42 255 0.0 1.0 0.00 0.02 0.02 88 1013.0
20260508084930 42 255 0.0 0.0 0.00 0.02 0.02 88 1013.0
20260508084658 42 255 0.0 0.0 0.00 0.02 0.02 88 1013.1
20260508083253 42 255 0.0 0.0 0.00 0.02 0.02 88 1012.9
20260508082746 42 255 0.0 0.0 0.00 0.02 0.02 88 1012.9
20260508082240 42 255 0.0 1.0 0.00 0.02 0.02 88 1012.9
20260508081735 42 254 0.0 1.0 0.00 0.02 0.02 88 1012.9
20260508081229 43 256 0.0 0.0 0.00 0.02 0.02 88 1013.0
20260508080722 43 256 0.0 0.0 0.00 0.02 0.02 88 1013.1
20260508080216 43 255 0.0 1.0 0.01 0.02 0.02 88 1013.1
20260508075710 43 256 0.0 2.0 0.01 0.02 0.02 89 1013.1
20260508075205 43 255 0.0 2.0 0.01 0.02 0.02 89 1013.1
20260508074659 43 15 0.0 1.0 0.01 0.02 0.02 89 1013.0
20260508074153 43 6 0.0 0.0 0.01 0.02 0.02 89 1013.0
20260508073647 43 6 0.0 0.0 0.01 0.02 0.02 89 1013.1
20260508073143 43 6 0.0 0.0 0.01 0.02 0.02 88 1013.1
20260508073137 43 6 0.0 0.0 0.01 0.02 0.02 89 1013.0
20260508072129 43 6 0.0 0.0 0.01 0.02 0.02 89 1013.1
20260508071623 43 6 0.0 0.0 0.01 0.02 0.02 89 1013.2
20260508071348 43 6 0.0 0.0 0.01 0.02 0.02 89 1013.1
20260508070610 43 6 0.0 2.0 0.01 0.02 0.02 88 1013.1
20260508070105 43 6 0.0 2.0 0.00 0.01 0.01 88 1013.1
20260508065559 43 32 0.0 1.0 0.00 0.01 0.01 88 1013.1
20260508065053 43 28 0.0 1.0 0.00 0.01 0.01 88 1013.0
20260508064547 43 101 0.0 1.0 0.00 0.01 0.01 88 1013.1
20260508064311 43 101 0.0 0.0 0.00 0.01 0.01 88 1013.1
20260508063534 43 101 0.0 1.0 0.00 0.01 0.01 87 1013.0
20260508063302 43 101 0.0 1.0 0.00 0.01 0.01 87 1013.0
20260508062523 43 101 0.0 0.0 0.00 0.01 0.01 87 1013.0
20260508062017 43 101 0.0 0.0 0.00 0.01 0.01 87 1013.0
20260508061510 43 101 0.0 0.0 0.00 0.01 0.01 87 1013.1
20260508061005 43 101 0.0 1.0 0.00 0.01 0.01 86 1013.1
20260508060729 44 101 0.0 1.0 0.00 0.01 0.01 86 1013.3
20260508055952 44 101 0.0 0.0 0.00 0.01 0.01 86 1013.2
20260508055447 44 101 0.0 0.0 0.00 0.01 0.01 86 1013.2
20260508054941 44 101 0.0 0.0 0.00 0.01 0.01 85 1013.1
20260508054434 44 101 0.0 0.0 0.01 0.01 0.01 84 1013.2
20260508054201 44 101 0.0 0.0 0.01 0.01 0.01 84 1013.2
20260508053423 44 101 0.0 0.0 0.01 0.01 0.01 84 1013.2
20260508053147 45 101 0.0 0.0 0.01 0.01 0.01 83 1013.3
20260508052411 45 101 0.0 0.0 0.01 0.01 0.01 83 1013.4
20260508051905 45 101 0.0 0.0 0.01 0.01 0.01 83 1013.4
20260508051359 45 101 0.0 0.0 0.01 0.01 0.01 81 1013.5
20260508050852 45 101 0.0 0.0 0.01 0.01 0.01 80 1013.6
20260508050351 46 101 1.0 6.0 0.01 0.01 0.01 78 1013.5
20260508050347 46 101 0.0 1.0 0.01 0.01 0.01 79 1013.5
20260508045347 47 248 3.0 8.0 0.01 0.01 0.01 77 1013.8
20260508045121 47 292 4.0 10.0 0.00 0.00 0.01 75 1014.0
20260508044347 49 229 4.0 10.0 0.00 0.00 0.00 72 1014.0
20260508044118 51 291 2.0 10.0 0.00 0.00 0.00 66 1013.7
20260508043346 51 305 1.0 3.0 0.00 0.00 0.00 62 1013.4
20260508042847 51 303 0.0 2.0 0.00 0.00 0.00 62 1013.4
20260508042347 51 278 0.0 2.0 0.00 0.00 0.00 61 1013.2
20260508041846 51 262 0.0 3.0 0.00 0.00 0.00 63 1013.2
20260508041344 51 258 1.0 3.0 0.00 0.00 0.00 61 1013.1
20260508041115 51 259 1.0 4.0 0.00 0.00 0.00 61 1013.1
20260508040344 51 259 2.0 6.0 0.00 0.00 0.00 61 1013.1
20260508035844 51 251 1.0 6.0 0.00 0.00 0.00 60 1013.1
20260508035615 51 220 0.0 4.0 0.00 0.00 0.00 59 1013.1
20260508035116 51 229 0.0 4.0 0.00 0.00 0.00 58 1013.2
20260508034616 51 240 1.0 4.0 0.00 0.00 0.00 58 1013.1
20260508034115 52 214 2.0 8.0 0.00 0.00 0.00 57 1013.3
20260508033344 52 269 1.0 8.0 0.00 0.00 0.00 57 1013.3
20260508033114 52 211 1.0 7.0 0.00 0.00 0.00 56 1013.4
20260508032344 52 195 1.0 7.0 0.00 0.00 0.00 55 1013.5
20260508032114 52 237 0.0 2.0 0.00 0.00 0.00 54 1013.4
20260508031616 52 239 1.0 6.0 0.00 0.00 0.00 54 1013.5
20260508030844 52 252 1.0 6.0 0.00 0.00 0.00 53 1013.6
20260508030343 52 240 0.0 2.0 0.00 0.00 0.00 54 1013.6
20260508030110 52 213 0.0 1.0 0.00 0.00 0.00 54 1013.6
20260508025334 52 209 0.0 1.0 0.00 0.00 0.00 55 1013.5
20260508024827 52 234 0.0 1.0 0.00 0.00 0.00 54 1013.3
20260508024321 52 238 0.0 1.0 0.00 0.00 0.00 55 1013.3
20260508023816 52 235 0.0 3.0 0.00 0.00 0.00 54 1013.1
20260508023541 52 248 1.0 3.0 0.00 0.00 0.00 53 1013.1
20260508022804 52 260 0.0 2.0 0.00 0.00 0.00 53 1013.2
20260508022258 52 270 1.0 4.0 0.00 0.00 0.00 54 1013.2
20260508021753 52 256 1.0 4.0 0.00 0.00 0.00 53 1013.1
20260508021246 52 290 0.0 2.0 0.00 0.00 0.00 53 1013.0
20260508020739 52 280 1.0 5.0 0.00 0.00 0.00 54 1013.1
20260508020233 52 233 1.0 5.0 0.00 0.00 0.00 54 1013.0
20260508015727 52 294 1.0 5.0 0.00 0.00 0.00 53 1013.0
20260508015719 52 324 1.0 5.0 0.00 0.00 0.00 53 1013.0
20260508014711 51 281 1.0 6.0 0.00 0.00 0.00 53 1013.0
20260508014436 51 276 1.0 6.0 0.00 0.00 0.00 54 1013.1
20260508013659 51 304 1.0 5.0 0.00 0.00 0.00 56 1013.0
20260508013153 51 312 1.0 5.0 0.00 0.00 0.00 56 1012.9
20260508012647 51 319 2.0 11.0 0.00 0.00 0.00 56 1013.0
20260508012141 51 297 3.0 11.0 0.00 0.00 0.00 56 1013.0
20260508011904 51 317 5.0 15.0 0.00 0.00 0.00 56 1012.8
20260508011129 52 302 5.0 15.0 0.00 0.00 0.00 56 1012.9
20260508010901 53 301 3.0 12.0 0.00 0.00 0.00 48 1013.0
20260508010129 53 259 2.0 7.0 0.00 0.00 0.00 46 1012.7
20260508005629 53 270 1.0 7.0 0.00 0.00 0.00 46 1012.6
20260508005129 53 288 1.0 3.0 0.00 0.00 0.00 46 1012.5
20260508004630 53 207 1.0 6.0 0.00 0.00 0.00 46 1012.4
20260508004129 54 277 3.0 9.0 0.00 0.00 0.00 45 1012.4
20260508003902 54 278 4.0 9.0 0.00 0.00 0.00 45 1012.4
20260508003130 54 298 3.0 9.0 0.00 0.00 0.00 44 1012.4
20260508002629 54 245 2.0 7.0 0.00 0.00 0.00 44 1012.4
20260508002129 54 281 2.0 7.0 0.00 0.00 0.00 44 1012.4
20260508001629 54 217 2.0 8.0 0.00 0.00 0.00 44 1012.4
20260508001130 54 188 3.0 8.0 0.00 0.00 0.00 44 1012.4
20260508000630 54 287 3.0 9.0 0.00 0.00 0.00 44 1012.4
20260508000128 54 264 4.0 11.0 0.00 0.00 0.00 43 1012.4
20260507235629 55 227 4.0 11.0 0.00 0.00 0.00 43 1012.5
20260507235127 55 319 4.0 11.0 0.00 0.00 0.00 43 1012.4
20260507234627 55 268 3.0 11.0 0.00 0.00 0.00 42 1012.3
20260507234128 55 285 4.0 10.0 0.00 0.00 0.00 43 1012.2
20260507233628 55 236 6.0 10.0 0.00 0.00 0.00 42 1012.3
20260507233128 55 260 6.0 14.0 0.00 0.00 0.00 42 1012.3
20260507232627 56 260 7.0 15.0 0.00 0.00 0.00 41 1012.3
20260507232357 56 229 5.0 15.0 0.00 0.00 0.00 41 1012.3
20260507231627 56 330 4.0 13.0 0.00 0.00 0.00 40 1012.4
20260507231127 56 213 6.0 16.0 0.00 0.00 0.00 41 1012.3
20260507230628 56 283 6.0 16.0 0.00 0.00 0.00 41 1012.3
20260507230127 56 238 5.0 13.0 0.00 0.00 0.00 41 1012.4
20260507225628 56 252 6.0 16.0 0.00 0.00 0.00 41 1012.4
20260507225121 56 281 6.0 16.0 0.00 0.00 0.00 40 1012.4
20260507224843 56 288 5.0 16.0 0.00 0.00 0.00 41 1012.5
20260507224718 56 309 5.0 13.0 0.00 0.00 0.00 41 1012.5
20260507223604 56 325 6.0 16.0 0.00 0.00 0.00 41 1012.6
20260507223057 56 294 5.0 14.0 0.00 0.00 0.00 41 1012.6
20260507222552 56 228 4.0 13.0 0.00 0.00 0.00 42 1012.6
20260507222046 56 257 5.0 13.0 0.00 0.00 0.00 42 1012.6
20260507221539 56 212 6.0 14.0 0.00 0.00 0.00 41 1012.6
20260507221034 56 288 6.0 15.0 0.00 0.00 0.00 40 1012.5
20260507220528 56 323 6.0 15.0 0.00 0.00 0.00 39 1012.5
20260507220021 57 274 6.0 13.0 0.00 0.00 0.00 40 1012.5
20260507215516 56 193 7.0 16.0 0.00 0.00 0.00 40 1012.4
20260507215010 57 272 7.0 18.0 0.00 0.00 0.00 40 1012.5
20260507214735 57 293 7.0 18.0 0.00 0.00 0.00 40 1012.4
20260507213958 57 240 6.0 16.0 0.00 0.00 0.00 39 1012.3
20260507213452 57 231 6.0 14.0 0.00 0.00 0.00 38 1012.4
20260507212945 57 249 6.0 13.0 0.00 0.00 0.00 39 1012.4
20260507212440 57 311 4.0 13.0 0.00 0.00 0.00 39 1012.3
20260507212206 57 302 5.0 14.0 0.00 0.00 0.00 41 1012.4
20260507211428 56 303 6.0 20.0 0.00 0.00 0.00 41 1012.5
20260507210921 56 207 7.0 20.0 0.00 0.00 0.00 39 1012.4
20260507210416 56 294 6.0 13.0 0.00 0.00 0.00 39 1012.4